Location: Peterborough
(44.3091°N, 78.3197°W)
Time: 18:15:24
(UTC-04:00)

Vanguard 3 - Pass Details

Date: 28 March 2023
Orbit: 507 x 3246 km, 33.4° (Epoch: 05 June)

Event Time Altitude Azimuth Distance (km) Brightness Sun altitude
Exits shadow 03:08:33 43° 171° (S) 4,010 10.2 -36.7°
Maximum altitude 03:11:14 45° 154° (SSE) 3,987 10.3 -36.5°
Drops below altitude 10° 03:28:38 10° 90° (E) 5,869 11.9 -34.5°
Sets 03:33:02 0° 85° (E) 6,656 12.4 -34.0°
